Theta_e
300 301 301 301 303 303 303 301 297 292 291 292 292 297 296 296 294 297 294 290 290 290 290 291 291 291 292 292 292 293 293 294 295 297 297 297 297 299
298 299 299 300 302 303 303 302 302 298 292 294 293 295 295 294 293 296 293 291 289 289 289 289 289 290 290 290 289 290 291 291 292 293 294 295 295 296
297 297 297 300 300 301 302 302 300 299 294 293 294 295 294 294 294 296 294 293 291 288 288 288 287 288 288 288 287 287 288 288 289 290 291 292 293 293
295 296 295 296 299 301 301 300 299 299 295 290 292 292 293 294 294 294 293 292 292 288 288 287 286 287 287 287 286 285 286 286 286 286 287 287 289 289
295 295 295 296 296 298 299 299 298 296 296 292 290 292 292 293 293 293 292 292 289 287 287 286 285 286 287 286 285 284 285 285 284 284 284 284 284 286
295 295 295 295 296 297 296 297 296 295 295 292 290 290 290 292 292 290 289 291 288 288 286 288 286 285 285 285 284 283 284 284 283 283 282 282 282 283
293 293 294 294 290 293 295 296 295 294 293 291 289 289 289 288 289 290 289 288 289 290 289 288 289 289 287 284 285 283 282 283 283 282 281 281 280 281
290 292 292 287 287 285 286 286 292 293 292 291 290 289 289 289 290 290 289 287 284 289 288 287 289 288 289 287 281 281 281 281 282 281 280 280 279 279
291 290 290 289 289 289 284 284 284 284 283 293 291 290 289 290 290 288 289 288 289 287 288 286 287 287 287 284 281 280 280 280 280 280 280 279 278 278
289 290 290 290 290 291 289 288 288 288 288 288 292 291 292 290 290 289 289 289 288 286 288 284 286 286 287 286 280 280 279 278 279 279 279 279 279 277
288 288 289 287 285 285 286 284 284 283 282 283 285 284 285 285 288 287 287 284 283 284 285 286 285 285 285 286 283 279 278 277 277 277 278 278 278 280
287 287 284 285 282 283 285 284 282 282 282 283 282 282 283 281 280 287 287 285 286 283 285 283 284 284 282 286 286 284 283 278 277 276 276 277 278 283
286 285 284 283 281 281 283 284 285 284 283 283 284 285 285 283 283 285 287 288 285 285 285 285 283 282 283 284 284 284 284 283 284 282 278 277 276 277
286 286 286 282 283 281 281 281 282 283 285 285 285 284 285 284 285 284 284 285 286 285 283 284 284 283 282 281 281 283 283 284 284 283 284 281 279 277
289 287 284 282 282 282 281 280 280 284 284 283 284 285 286 287 285 283 283 283 282 282 282 282 284 283 282 282 282 281 281 282 283 282 283 283 282 282
285 285 284 283 283 284 282 281 283 284 284 284 285 286 287 285 284 283 282 282 282 282 282 283 282 282 281 281 281 281 282 280 282 282 282 281 282 283
284 284 283 282 282 282 283 283 283 283 283 284 284 285 284 284 283 284 283 282 281 281 281 282 282 282 282 281 280 281 281 281 282 281 279 280 281 282
285 284 283 283 283 283 283 283 283 282 283 283 283 283 283 282 283 283 283 282 281 281 282 283 282 280 280 280 280 280 281 281 281 280 279 278 279 281
284 284 284 284 284 284 284 284 283 284 283 282 282 282 282 282 282 282 282 282 281 282 282 283 281 279 277 277 282 280 279 280 280 279 279 278 278 279
285 285 284 285 285 286 286 285 285 285 283 282 282 282 282 282 281 281 282 282 281 282 281 282 281 280 278 279 280 282 279 279 279 278 278 279 280 278
284 285 286 286 286 286 286 286 285 284 284 283 283 282 283 281 281 282 282 281 281 281 280 280 282 282 282 282 277 278 280 278 279 278 278 277 276 277
286 285 286 287 287 287 286 285 284 284 284 283 283 283 283 283 282 281 282 281 281 281 281 283 283 281 279 277 276 277 278 281 278 277 276 275 276 273
287 286 287 287 287 286 286 285 284 284 284 284 283 283 283 282 282 283 282 282 281 281 280 280 281 281 278 277 277 277 277 278 279 276 276 275 275 274
Wind_Speed
8 8 6 6 7 6 6 9 9 8 10 9 6 7 6 9 6 9 10 10 12 12 14 15 15 15 16 18 18 18 18 18 19 20 20 21 22 22
6 8 7 7 7 6 7 8 7 7 6 9 6 9 8 8 6 9 11 11 12 12 12 14 15 14 16 17 17 17 18 18 18 18 19 20 21 21
8 8 8 9 8 8 8 8 7 5 7 8 8 9 11 10 9 10 11 8 9 9 10 12 12 13 14 15 16 16 17 17 17 18 19 19 20 20
9 8 8 7 10 10 9 10 7 5 9 12 11 10 10 10 10 9 6 5 8 8 10 11 11 11 12 14 15 15 15 16 16 16 17 18 19 19
9 10 9 9 10 9 9 9 7 5 8 9 10 9 8 8 9 7 7 7 6 9 9 11 10 8 11 12 14 14 13 15 15 14 15 17 17 17
8 8 9 9 10 11 10 11 8 8 8 9 10 9 9 10 8 8 7 5 6 5 8 10 6 8 8 10 12 13 12 13 14 13 13 14 15 15
7 7 7 4 9 4 8 10 10 9 9 10 10 9 9 9 9 7 7 6 6 5 6 7 7 6 8 8 11 11 11 11 12 13 13 13 14 14
8 7 7 6 5 5 7 15 4 11 12 9 8 10 10 9 9 8 6 7 7 5 6 6 5 4 4 7 7 8 9 10 10 11 11 11 11 12
5 8 7 5 7 8 6 8 8 8 6 7 8 8 9 9 9 9 8 7 4 6 6 5 5 4 4 9 6 6 8 9 9 9 10 10 9 9
8 4 7 7 8 5 9 9 8 6 0 1 3 5 5 7 8 7 7 6 5 5 5 5 4 4 4 7 7 5 5 7 8 8 10 11 9 4
7 6 7 8 10 11 8 9 7 5 5 8 12 10 9 4 3 6 7 7 6 5 5 3 4 5 4 4 9 7 5 4 5 6 7 9 12 14
10 10 10 10 14 13 10 10 9 8 9 10 10 12 10 7 2 4 6 6 5 4 5 5 4 4 4 6 5 8 9 9 6 3 1 7 12 7
9 9 8 13 15 13 8 9 9 11 10 9 8 7 6 7 6 5 5 5 6 3 7 5 5 4 3 2 5 5 3 4 4 6 9 4 4 7
8 8 8 18 17 14 8 11 16 9 8 7 7 7 7 7 6 5 5 4 3 3 9 5 3 5 5 4 4 4 4 3 3 3 3 2 7 5
7 9 13 19 17 12 10 13 12 7 7 7 7 7 7 7 8 8 7 7 6 6 7 7 5 5 5 4 3 4 3 5 4 4 3 3 4 4
8 8 9 10 10 8 10 10 7 7 8 7 7 7 7 7 8 7 7 7 6 7 8 9 9 7 6 6 5 5 6 5 6 5 3 4 4 3
10 8 8 9 9 9 9 9 9 8 8 8 7 8 8 8 8 8 7 7 7 8 8 7 9 9 7 7 7 7 6 6 6 4 4 5 5 4
9 8 8 9 10 10 10 10 10 10 9 9 8 8 8 9 8 8 8 8 9 8 7 8 8 8 8 9 12 8 7 6 6 6 6 7 6 5
8 8 8 9 9 9 9 9 10 9 8 9 9 9 8 8 9 9 10 9 10 9 9 8 8 10 10 10 4 19 8 8 7 7 7 7 7 7
8 7 8 9 9 9 8 8 8 8 9 9 9 9 9 9 9 10 10 10 11 10 10 10 10 11 11 10 8 6 20 9 8 8 8 7 7 8
8 9 8 9 9 9 8 8 8 8 9 8 9 9 9 10 10 10 10 13 13 11 12 11 10 10 8 5 7 9 7 18 14 9 8 8 9 9
9 10 10 9 9 8 8 8 8 8 9 9 9 9 9 10 10 10 10 11 12 11 11 8 8 9 10 12 12 12 9 7 15 17 15 12 9 9
9 9 8 7 7 7 8 8 9 9 10 9 9 9 10 10 11 10 11 11 12 11 12 11 10 10 11 12 13 11 14 12 9 10 10 21 21 19
Wind_Direction
172 188 194 194 205 195 184 182 175 171 178 165 144 172 134 165 148 116 108 104 84 69 59 47 52 54 49 48 41 39 41 40 40 38 40 41 39 35
162 169 182 181 174 170 183 187 191 197 159 146 153 169 178 142 148 118 111 113 92 80 68 56 49 51 50 49 46 41 41 40 38 39 39 42 41 38
160 172 176 172 169 169 176 167 192 164 139 156 151 169 176 147 150 132 150 141 108 86 78 72 58 49 58 54 50 44 43 42 40 36 37 37 42 38
170 169 171 178 171 167 172 170 170 157 143 164 162 177 181 155 145 148 134 108 104 95 92 86 70 48 66 60 54 44 47 45 45 39 42 37 34 39
178 177 165 177 173 170 168 161 162 156 163 162 174 176 166 154 151 142 149 129 100 121 113 96 79 70 64 71 62 46 50 50 44 48 42 43 35 36
192 181 178 182 176 162 172 158 165 188 174 178 174 169 172 161 165 160 164 168 138 134 70 81 101 106 87 80 69 53 44 55 52 47 46 50 39 38
197 182 186 159 41 109 172 152 174 195 184 182 177 174 170 171 182 169 164 153 157 168 157 172 174 170 143 102 97 65 49 43 51 51 48 46 43 39
189 178 156 134 112 66 48 58 108 196 195 189 181 182 176 177 176 172 176 174 167 183 193 151 203 157 120 88 64 69 53 46 47 48 50 45 45 45
174 193 168 158 169 167 113 96 77 43 346 220 189 188 172 173 168 176 183 188 186 129 206 162 202 165 133 126 96 80 59 44 41 41 39 40 38 43
191 186 162 171 180 160 168 162 155 171 138 260 154 79 117 166 179 180 172 162 109 142 227 200 187 175 181 128 129 99 71 44 37 27 23 18 8 352
164 169 175 174 161 150 125 130 132 118 88 73 86 117 122 82 129 169 163 170 171 166 182 221 170 197 197 215 138 147 138 89 42 26 12 3 345 300
175 173 176 170 165 169 162 156 159 149 136 126 124 122 138 120 56 200 170 193 168 167 153 221 158 189 211 210 208 171 174 169 174 171 11 2 355 338
178 175 170 169 170 176 183 176 167 152 148 147 147 150 154 159 164 187 182 209 181 217 139 214 189 183 256 148 206 211 217 169 245 189 183 129 2 356
175 179 170 173 177 173 185 116 140 160 165 167 170 169 176 174 160 174 153 175 78 16 149 215 192 204 208 196 218 182 208 250 258 250 304 306 216 193
170 172 161 173 180 172 175 154 164 178 175 181 188 185 190 181 163 173 174 173 171 158 170 191 230 183 226 237 230 211 227 207 212 246 281 303 316 314
135 145 160 164 172 172 165 176 188 189 190 195 197 192 184 180 187 182 186 189 195 188 195 201 211 207 220 229 238 240 211 232 188 221 271 275 260 273
147 146 158 172 177 186 190 189 197 195 200 204 201 196 193 194 200 193 200 199 209 206 189 198 214 221 227 250 231 234 241 232 226 234 253 273 275 270
164 172 180 188 194 193 197 197 198 199 202 204 203 204 201 203 204 204 203 218 217 220 216 197 196 214 222 222 232 250 243 233 234 212 239 267 277 275
181 187 191 190 196 202 200 201 203 202 201 207 204 207 208 208 206 209 209 217 222 226 220 212 214 213 232 241 204 217 238 232 215 230 246 257 274 284
192 188 193 194 200 204 202 203 204 194 201 209 209 208 207 211 210 215 218 215 223 225 226 218 217 221 232 246 261 202 216 228 240 240 252 255 264 266
199 199 201 202 202 204 207 204 204 202 198 206 213 210 207 212 219 221 222 222 221 227 227 227 223 215 234 245 243 241 192 219 234 252 254 259 270 279
200 207 205 205 206 203 200 198 199 203 204 209 213 212 209 210 220 221 219 221 219 229 234 235 212 200 210 227 237 245 242 220 215 224 236 260 269 263
198 207 207 205 203 205 210 202 211 208 210 209 215 214 212 214 218 221 221 221 229 217 224 231 219 210 213 222 232 236 241 239 212 197 223 228 236 246